NovaSAR-S

operational
NORAD ID: 43619 Int'l Des: 2018-071 Owner: SSTLA Country: UK
LEOCIRCULARRETROGRADESSO

关于 NovaSAR-S

正在加载描述...

实时位置

正在加载3D地球...

即将过境

高度历史

Altitude vs Time

uPlot chart will show altitude changes over time

两行轨道根数

1 43619U 18071B 26062.65642508 .00000447 00000-0 44404-4 0 9997
2 43619 97.5233 299.2052 0002056 98.5240 261.6215 14.96284616407151
Epoch: Mar 3, 2026 • Age: 24 hours

当前状态

高度 583.8 km
速度 7.57 km/s
星下点 -10.20°S, 143.12°E
发射日期 Sep 16, 2018
运行时间 7.4 years
类型 other

技术详情

分类 Payload
质量 445.00 kg
干质量 400.00 kg
总质量 445.00 kg
长度 3.00 m
直径 1.00 m
跨度 3.00 m
形状 Box tri
制造商 SSTLA
平台类型 NovaSAR-S
阶段状态 In Orbit
所有者/国家 SSTLA/UK

大型星座

Loading constellations...